DateTimeUTC,F1_A11,F1_S11,BsB_S11,BsG_S11,BsR_S11,BbsB_S11,BbsG_S11,BbsR_S11,BaB_A11,BaG_A11,BaR_A11,Tu_S11,T_S11,Uu_S11,U_S11,P_S11,T1_A11
2021-02-10T05:00:00Z,00000200,21000000,,,,,,,-000.04,-000.23,0000.01,16.0,23.3,,00.0,0646.6,30.9
2021-02-10T05:01:00Z,00000200,21000000,,,,,,,0000.21,0000.36,0000.27,16.0,23.3,,00.0,0646.6,30.9
2021-02-10T05:02:00Z,00000200,21000000,,,,,,,-000.22,-000.03,-000.38,16.0,23.3,,00.0,0646.6,30.9
2021-02-10T05:03:00Z,00000200,61000000,,,,,,,0000.01,-000.21,0000.65,16.0,23.3,,00.0,0646.6,30.9
2021-02-10T05:04:00Z,00000200,41000000,0000.85,0000.09,0000.03,-000.02,-000.04,0000.16,0000.23,0000.36,-000.31,16.0,23.0,,00.0,0647.5,30.9
2021-02-10T05:05:00Z,00000200,01000000,0000.30,0000.57,-000.01,0000.19,0000.09,0000.10,0000.03,-000.14,-000.14,16.0,23.0,,00.0,0647.5,30.9
2021-02-10T05:06:00Z,00000200,01000000,0000.32,0000.11,0000.32,-000.50,0000.16,0000.35,0000.22,0000.04,0000.61,16.0,22.9,,00.0,0647.5,30.9
2021-02-10T05:07:00Z,00000200,01000000,0000.50,0000.31,0000.33,0000.50,0000.13,-000.03,0000.37,0000.23,-000.06,16.0,22.9,,00.0,0647.4,30.9
2021-02-10T05:08:00Z,00000200,01000000,0000.47,-000.00,0000.27,-000.38,0000.06,-000.09,0000.29,0000.34,0000.45,16.0,22.9,,00.0,0647.3,30.9
2021-02-10T05:09:00Z,00000200,01000000,0000.00,0000.29,0000.31,-000.32,0000.06,-000.05,0000.75,0000.70,0000.32,16.1,22.9,,00.0,0647.3,30.9
2021-02-10T05:10:00Z,00000200,01000000,0001.13,-000.02,0000.01,-000.01,0000.12,0000.18,0000.12,0000.46,0000.16,16.2,23.0,,00.0,0647.3,30.9
2021-02-10T05:11:00Z,00000200,01000000,-000.11,0000.36,0000.46,0000.18,0000.10,0000.12,0000.05,0000.30,0000.17,16.3,23.0,,00.0,0647.3,30.9
2021-02-10T05:12:00Z,00000200,01000000,0000.21,0000.08,0000.24,0000.56,-000.06,0000.10,0000.09,-000.32,-000.14,16.3,23.0,,00.0,0647.2,31.0
2021-02-10T05:13:00Z,00000200,01000000,0000.32,0000.10,0000.22,0000.22,-000.14,0000.38,-000.07,0000.10,0000.18,16.3,23.0,,00.0,0647.2,31.0
2021-02-10T05:14:00Z,00000200,01000000,0000.37,0000.48,0000.10,-000.05,0000.28,0000.17,0000.35,-000.18,-000.06,16.3,23.0,,00.0,0647.3,30.9
2021-02-10T05:15:00Z,00000200,01000000,0000.27,0000.02,0000.33,0000.45,-000.18,0000.28,-000.14,0000.24,0000.08,16.2,23.0,,00.0,0647.2,30.9
2021-02-10T05:16:00Z,00000200,01000000,-000.13,0000.26,0000.32,0000.07,-000.15,-000.14,0000.35,0000.15,-000.07,16.2,23.0,,00.0,0647.2,30.9
2021-02-10T05:17:00Z,00000200,01000000,0000.39,0000.24,0000.39,-000.10,0000.06,0000.15,0000.39,0000.50,0000.35,16.1,23.0,,00.0,0647.2,30.9
2021-02-10T05:18:00Z,00000200,01000000,0000.62,-000.24,0000.10,0000.13,0000.25,0000.09,0000.26,0000.12,-000.01,16.1,22.9,,00.0,0647.2,30.9
2021-02-10T05:19:00Z,00000200,01000000,0000.02,0000.02,0000.25,-000.42,-000.05,0000.09,-000.11,0000.21,0000.19,16.0,22.9,,00.0,0647.3,30.9
2021-02-10T05:20:00Z,00000200,01000000,0001.18,-000.20,-000.12,-000.19,0000.06,-000.02,-000.07,-000.32,-000.21,16.0,22.9,,00.0,0647.4,30.9
2021-02-10T05:21:00Z,00000200,01000000,0001.08,-000.10,-000.04,-000.15,0000.12,-000.09,-000.79,-000.50,-000.38,16.0,22.8,,00.0,0647.5,30.9
2021-02-10T05:22:00Z,00000200,01000000,0000.28,0000.27,0000.13,-000.28,0000.05,-000.11,0000.25,-000.10,-000.01,16.0,22.8,,00.0,0647.5,30.9
2021-02-10T05:23:00Z,00000200,01000000,0000.43,0000.13,0000.11,0000.45,-000.00,-000.12,0000.27,0000.25,0000.24,16.1,22.9,,00.0,0647.5,30.9
2021-02-10T05:24:00Z,00000200,01000000,0000.59,0000.35,0000.21,-000.01,0000.28,0000.02,0000.15,-000.12,0000.08,16.1,22.9,,00.0,0647.5,30.9
2021-02-10T05:25:00Z,00000200,01000000,0000.37,0000.24,0000.11,-000.06,-000.04,0000.41,-000.15,-000.01,-000.07,16.2,22.9,,00.0,0647.6,30.9
2021-02-10T05:26:00Z,00000200,01000000,0000.09,0000.31,0000.26,-000.23,-000.13,0000.01,-000.22,0000.00,0000.19,16.3,23.0,,00.0,0647.7,30.9
2021-02-10T05:27:00Z,00000200,01000000,0000.52,0000.15,0000.07,-000.10,0000.11,-000.10,-000.20,0000.01,-000.48,16.4,23.0,,00.0,0647.6,31.0
2021-02-10T05:28:00Z,00000200,01000000,0000.72,-000.07,0000.18,0000.06,-000.10,-000.02,0000.30,0000.02,0000.26,16.4,23.1,,00.0,0647.5,31.0
2021-02-10T05:29:00Z,00000200,01000000,0000.26,0000.31,0000.29,0000.06,-000.00,0000.03,-000.25,-000.05,-000.24,16.4,23.0,,00.0,0647.5,31.0
2021-02-10T05:30:00Z,00000200,01000000,0000.53,0000.25,0000.04,0000.39,0000.01,-000.01,0000.13,0000.13,0000.06,16.4,23.1,,00.0,0647.5,31.0
2021-02-10T05:31:00Z,00000200,01000000,0000.69,0000.15,0000.08,0000.30,0000.16,0000.21,0000.03,-000.24,-000.13,16.3,23.0,,00.0,0647.4,31.0
2021-02-10T05:32:00Z,00000200,01000000,0000.60,0000.05,0000.01,0000.67,0000.11,-000.19,0000.58,0000.55,0000.53,16.3,23.0,,00.0,0647.4,30.9
2021-02-10T05:33:00Z,00000200,01000000,-000.21,0000.19,0000.19,0000.35,-000.02,0000.39,0000.38,0000.14,0000.22,16.2,23.0,,00.0,0647.3,30.9
2021-02-10T05:34:00Z,00000200,01000000,0000.42,0000.18,0000.22,0000.00,-000.00,-000.06,0000.02,0000.38,0000.02,16.2,23.0,,00.0,0647.3,30.9
2021-02-10T05:35:00Z,00000200,01000000,0000.45,0000.41,0000.16,0000.16,0000.20,0000.17,0000.47,-000.14,0000.50,16.1,22.9,,00.0,0647.2,30.9
2021-02-10T05:36:00Z,00000200,01000000,0000.46,0000.52,0000.26,-000.10,0000.24,-000.05,0000.33,0000.56,-000.11,16.1,22.9,,00.0,0647.1,30.9
2021-02-10T05:37:00Z,00000200,01000000,0000.24,0000.21,0000.24,-000.12,0000.05,0000.22,0000.86,0000.93,0000.97,16.1,22.9,,00.0,0647.1,30.9
2021-02-10T05:38:00Z,00000200,01000000,0000.30,0000.20,0000.27,0000.16,0000.10,0000.36,0000.57,0000.49,0000.31,16.1,22.9,,00.0,0647.1,30.9
2021-02-10T05:39:00Z,00000200,01000000,0000.53,0000.02,0000.36,-000.40,0000.16,0000.14,0000.14,0000.22,0000.23,16.2,23.0,,00.0,0647.2,30.9
2021-02-10T05:40:00Z,00000200,01000000,-000.03,0000.20,0000.15,0000.42,0000.15,-000.09,-000.03,0000.11,-000.16,16.3,23.0,,00.0,0647.2,30.9
2021-02-10T05:41:00Z,00000200,01000000,0000.47,0000.35,0000.08,0000.35,0000.15,-000.32,-000.05,0000.09,-000.25,16.4,23.0,,00.0,0647.3,31.0
2021-02-10T05:42:00Z,00000200,01000000,0000.45,0000.16,0000.08,0000.52,0000.17,0000.11,0000.10,-000.46,-000.09,16.4,23.1,,00.0,0647.3,31.0
2021-02-10T05:43:00Z,00000200,01000000,0000.44,0000.36,0000.13,-000.27,0000.06,0000.12,-000.25,0000.22,0000.34,16.4,23.1,,00.0,0647.2,31.0
2021-02-10T05:44:00Z,00000200,01000000,-000.19,0000.23,0000.05,-000.45,-000.05,-000.04,0000.11,0000.12,0000.06,16.4,23.1,,00.0,0647.3,31.0
2021-02-10T05:45:00Z,00000200,01000000,0000.38,0000.54,-000.06,0000.46,0000.20,0000.29,0000.01,0000.15,-000.10,16.4,23.1,,00.0,0647.3,30.9
2021-02-10T05:46:00Z,00000200,01000000,0001.01,0000.34,0000.15,-000.13,0000.12,0000.13,0000.12,-000.20,-000.03,16.3,23.1,,00.0,0647.3,30.9
2021-02-10T05:47:00Z,00000200,01000000,0000.28,0000.18,0000.04,0000.09,0000.08,-000.05,-000.14,-000.24,-000.32,16.3,23.0,,00.0,0647.4,30.9
2021-02-10T05:48:00Z,00000200,01000000,0000.62,0000.25,-000.03,0000.24,0000.08,0000.07,0000.12,0000.02,0000.17,16.2,23.0,,00.0,0647.3,30.9
2021-02-10T05:49:00Z,00000200,01000000,0000.58,0000.17,0000.16,0000.45,0000.17,0000.04,-000.12,-000.09,0000.10,16.2,23.0,,00.0,0647.2,30.9
2021-02-10T05:50:00Z,00000200,01000000,-000.14,0000.01,-000.14,0000.52,-000.02,-000.05,0000.44,0000.28,0000.25,16.1,23.0,,00.0,0647.2,30.9
2021-02-10T05:51:00Z,00000200,01000000,-000.06,0000.23,0000.03,0000.48,-000.20,-000.21,0000.09,0000.11,-000.13,16.1,22.9,,00.0,0647.2,30.9
2021-02-10T05:52:00Z,00000200,01000000,-000.16,0000.17,0000.31,-000.11,0000.14,0000.34,0000.40,0000.61,0000.73,16.1,22.9,,00.0,0647.1,30.9
2021-02-10T05:53:00Z,00000200,01000000,0000.24,0000.17,0000.03,0000.42,0000.10,-000.13,0000.38,0000.23,0000.02,16.2,23.0,,00.0,0647.1,30.9
2021-02-10T05:54:00Z,00000200,01000000,0000.15,0000.05,0000.03,-000.09,-000.09,-000.01,0000.29,0000.21,0000.40,16.3,23.0,,00.0,0647.0,30.9
2021-02-10T05:55:00Z,00000200,01000000,0000.21,0000.25,0000.00,0000.47,-000.00,0000.08,0000.38,0000.40,0000.07,16.3,23.0,,00.0,0647.1,31.0
2021-02-10T05:56:00Z,00000200,01000000,0000.19,0000.15,0000.44,0000.12,0000.10,0000.09,-000.19,-000.01,-000.12,16.4,23.1,,00.0,0647.0,31.0
2021-02-10T05:57:00Z,00000200,41000000,,,,,,,-000.30,-000.15,-000.02,16.5,23.1,,00.0,0646.9,30.9
2021-02-10T05:58:00Z,00000200,61000000,,,,,,,0000.09,0000.18,-000.06,16.1,23.2,,00.0,0645.9,31.0
2021-02-10T05:59:00Z,00000200,21000000,,,,,,,0000.45,0000.31,0000.39,16.0,23.3,,00.0,0645.9,31.0
